This is the latest recevied weather packets stored in our database for station/object OK2ILA-3. If no packets are shown the sender has not sent any weather packets the latest 10 day(s).
| Time | Temp. | Humidity | Pressure | Rain* | Wind** | Luminosity | Snow |
|---|---|---|---|---|---|---|---|
| 1778107761 | 13.89° C | 6% | 4096.3 hPa | 0 mm | - | - | - |
| 1778107158 | 13.89° C | 53% | 4096 hPa | 0 mm | - | - | - |
| 1778106550 | 13.89° C | 100% | 486.4 hPa | 0 mm | - | - | - |
| 1778105946 | 14.44° C | 1% | 486.4 hPa | 0 mm | - | - | - |
| 1778105342 | 14.44° C | 100% | 486.4 hPa | 0 mm | - | - | - |
| 1778104734 | 14.44° C | 100% | 486.4 hPa | 0 mm | - | - | - |
| 1778104129 | 14.44° C | 61% | 486.4 hPa | 0 mm | - | - | - |
| 1778103526 | 14.44° C | 40% | 486.4 hPa | 0 mm | - | - | - |
| 1778102919 | 14.44° C | 3% | 4096.2 hPa | 0 mm | - | - | - |
| 1778102303 | 14.44° C | 12% | 4096.2 hPa | 0 mm | - | - | - |
| 1778101087 | 14.44° C | 82% | 4352 hPa | 0 mm | - | - | - |
| 1778100480 | 15° C | 100% | 4352 hPa | 0 mm | - | - | - |
| 1778099877 | 15° C | 3% | 4352 hPa | 0 mm | - | - | - |
| 1778099270 | 15.56° C | 100% | 102.4 hPa | 0 mm | - | - | - |
| 1778098660 | 15.56° C | 28% | 102.4 hPa | 0 mm | - | - | - |
| 1778098055 | 16.11° C | 79% | 2483.2 hPa | 0 mm | - | - | - |
| 1778097450 | 16.11° C | 100% | 113 hPa | 0 mm | - | - | - |
| 1778096841 | 16.11° C | 28% | 2892.8 hPa | 0 mm | - | - | - |
| 1778095630 | 16.67° C | 60% | 2892.8 hPa | 0 mm | - | - | - |
| 1778095024 | 16.67° C | 100% | 8.1 hPa | 0 mm | - | - | - |
| 1778094417 | 16.67° C | 33% | 8.1 hPa | 0 mm | - | - | - |
| 1778093809 | 16.67° C | 28% | 3687.7 hPa | 0 mm | - | - | - |
| 1778093204 | 16.67° C | 100% | 3456.2 hPa | 0 mm | - | - | - |
| 1778092599 | 17.22° C | 52% | 3456.2 hPa | 0 mm | - | - | - |
| 1778091991 | 17.22° C | 59% | 1126.4 hPa | 0 mm | - | - | - |
* Rain latest 24 hours (hover to see other rain measurements)
** Current wind speed in m/s (hover to see current wind gust speed)